| time (UTC) | temp F | wind direction | speed MPH | gust MPH | rain 1hr in | rain 24hr in | rain mn in | humidity % | barometer mb |
| 20260509104559 | 48 | 232 | 0.0 | 3.0 | 0.00 | 0.00 | 0.00 | 46 | 1001.2 |
| 20260509103058 | 48 | 261 | 0.0 | 6.0 | 0.00 | 0.00 | 0.00 | 47 | 1001.0 |
| 20260509101555 | 49 | 31 | 1.0 | 8.0 | 0.00 | 0.00 | 0.00 | 47 | 1000.9 |
| 20260509100110 | 49 | 267 | 1.0 | 7.0 | 0.00 | 0.00 | 0.00 | 47 | 1000.9 |
| 20260509094555 | 49 | 0 | 0.0 | 2.0 | 0.00 | 0.00 | 0.00 | 48 | 1000.6 |
| 20260509093053 | 49 | 224 | 0.0 | 1.0 | 0.00 | 0.00 | 0.00 | 49 | 1000.5 |
| 20260509091605 | 49 | 0 | 0.0 | 2.0 | 0.00 | 0.00 | 0.00 | 49 | 1000.5 |
| 20260509090056 | 49 | 272 | 1.0 | 3.0 | 0.00 | 0.00 | 0.00 | 50 | 1000.5 |
| 20260509084555 | 49 | 0 | 1.0 | 4.0 | 0.00 | 0.00 | 0.00 | 51 | 1000.5 |
| 20260509083057 | 48 | 186 | 0.0 | 2.0 | 0.00 | 0.00 | 0.00 | 55 | 1000.4 |
| 20260509081601 | 47 | 0 | 0.0 | 2.0 | 0.00 | 0.00 | 0.00 | 56 | 1000.5 |
| 20260509080054 | 48 | 155 | 0.0 | 1.0 | 0.00 | 0.00 | 0.00 | 56 | 1000.5 |
| 20260509074555 | 49 | 0 | 0.0 | 1.0 | 0.00 | 0.00 | 0.00 | 52 | 1000.2 |
| 20260509073105 | 50 | 0 | 0.0 | 1.0 | 0.00 | 0.00 | 0.00 | 47 | 1000.3 |
| 20260509071554 | 50 | 0 | 0.0 | 2.0 | 0.00 | 0.00 | 0.00 | 47 | 1000.5 |
| 20260509070059 | 50 | 0 | 0.0 | 1.0 | 0.00 | 0.00 | 0.00 | 48 | 1000.8 |
| 20260509064554 | 50 | 0 | 0.0 | 1.0 | 0.00 | 0.00 | 0.00 | 49 | 1000.7 |
| 20260509063059 | 50 | 123 | 0.0 | 1.0 | 0.00 | 0.00 | 0.00 | 49 | 1000.6 |
| 20260509061608 | 51 | 174 | 0.0 | 1.0 | 0.00 | 0.00 | 0.00 | 45 | 1001.0 |
| 20260509054602 | 52 | 0 | 0.0 | 1.0 | 0.00 | 0.00 | 0.00 | 44 | 1000.5 |
| 20260509053100 | 52 | 154 | 0.0 | 3.0 | 0.00 | 0.00 | 0.00 | 43 | 1000.6 |
| 20260509051557 | 53 | 271 | 0.0 | 4.0 | 0.00 | 0.00 | 0.00 | 43 | 1000.7 |
| 20260509050107 | 53 | 0 | 0.0 | 2.0 | 0.00 | 0.00 | 0.00 | 43 | 1000.6 |
| 20260509044559 | 54 | 273 | 1.0 | 3.0 | 0.00 | 0.00 | 0.00 | 43 | 1000.5 |
| 20260509043106 | 54 | 272 | 1.0 | 4.0 | 0.00 | 0.00 | 0.00 | 44 | 1000.6 |
| 20260509041602 | 53 | 269 | 1.0 | 6.0 | 0.00 | 0.00 | 0.00 | 45 | 1000.5 |
| 20260509040058 | 51 | 279 | 0.0 | 2.0 | 0.00 | 0.00 | 0.00 | 49 | 1000.1 |
| 20260509034605 | 51 | 0 | 0.0 | 1.0 | 0.00 | 0.00 | 0.00 | 52 | 999.9 |
| 20260509033059 | 52 | 0 | 0.0 | 0.0 | 0.00 | 0.00 | 0.00 | 49 | 999.8 |
| 20260509031556 | 54 | 0 | 0.0 | 0.0 | 0.00 | 0.00 | 0.00 | 46 | 999.9 |
| 20260509024555 | 55 | 163 | 0.0 | 1.0 | 0.00 | 0.00 | 0.00 | 46 | 999.6 |
| 20260509023054 | 56 | 0 | 0.0 | 2.0 | 0.00 | 0.00 | 0.00 | 42 | 999.6 |
| 20260509021555 | 57 | 0 | 1.0 | 3.0 | 0.00 | 0.00 | 0.00 | 43 | 999.6 |
| 20260509020053 | 56 | 161 | 0.0 | 1.0 | 0.00 | 0.00 | 0.00 | 41 | 999.6 |
| 20260509014554 | 57 | 0 | 0.0 | 1.0 | 0.00 | 0.00 | 0.00 | 41 | 999.6 |
| 20260509013058 | 58 | 0 | 0.0 | 0.0 | 0.00 | 0.00 | 0.00 | 38 | 999.6 |
| 20260509011555 | 60 | 0 | 0.0 | 0.0 | 0.00 | 0.00 | 0.00 | 35 | 999.7 |
| 20260509010056 | 61 | 0 | 0.0 | 2.0 | 0.00 | 0.00 | 0.00 | 31 | 999.8 |
| 20260509004557 | 62 | 0 | 0.0 | 2.0 | 0.00 | 0.00 | 0.00 | 30 | 999.8 |
| 20260509003058 | 62 | 0 | 1.0 | 3.0 | 0.00 | 0.00 | 0.00 | 30 | 999.9 |
| 20260509001553 | 63 | 0 | 1.0 | 6.0 | 0.00 | 0.00 | 0.00 | 29 | 999.9 |
| 20260509000056 | 63 | 223 | 2.0 | 7.0 | 0.00 | 0.00 | 0.00 | 28 | 1000.1 |
| 20260508234557 | 63 | 264 | 1.0 | 9.0 | 0.00 | 0.00 | 0.00 | 27 | 1000.2 |
| 20260508233108 | 64 | 265 | 2.0 | 10.0 | 0.00 | 0.00 | 0.00 | 27 | 1000.3 |
| 20260508231633 | 64 | 218 | 3.0 | 8.0 | 0.00 | 0.00 | 0.00 | 26 | 1000.5 |
| 20260508224603 | 65 | 239 | 3.0 | 7.0 | 0.00 | 0.00 | 0.00 | 26 | 1000.6 |
| 20260508223054 | 65 | 168 | 4.0 | 11.0 | 0.00 | 0.00 | 0.00 | 26 | 1000.7 |
| 20260508221555 | 65 | 249 | 3.0 | 14.0 | 0.00 | 0.00 | 0.00 | 26 | 1000.9 |
| 20260508214634 | 65 | 259 | 3.0 | 16.0 | 0.00 | 0.00 | 0.00 | 26 | 1001.2 |
| 20260508213053 | 64 | 164 | 4.0 | 11.0 | 0.00 | 0.00 | 0.00 | 27 | 1001.4 |
| 20260508211556 | 65 | 234 | 5.0 | 12.0 | 0.00 | 0.00 | 0.00 | 26 | 1001.5 |
| 20260508210056 | 65 | 315 | 2.0 | 9.0 | 0.00 | 0.00 | 0.00 | 27 | 1001.7 |
| 20260508204551 | 64 | 260 | 2.0 | 9.0 | 0.00 | 0.00 | 0.00 | 26 | 1001.9 |
| 20260508203116 | 66 | 321 | 3.0 | 9.0 | 0.00 | 0.00 | 0.00 | 25 | 1002.0 |
| 20260508201559 | 66 | 277 | 3.0 | 10.0 | 0.00 | 0.00 | 0.00 | 26 | 1002.0 |
| 20260508200103 | 65 | 281 | 3.0 | 11.0 | 0.00 | 0.00 | 0.00 | 26 | 1002.2 |
| 20260508194603 | 63 | 114 | 2.0 | 12.0 | 0.00 | 0.00 | 0.00 | 28 | 1002.5 |
| 20260508193137 | 64 | 275 | 2.0 | 8.0 | 0.00 | 0.00 | 0.00 | 26 | 1002.8 |
| 20260508191607 | 63 | 248 | 2.0 | 6.0 | 0.00 | 0.00 | 0.00 | 27 | 1003.1 |
| 20260508190107 | 64 | 160 | 3.0 | 9.0 | 0.00 | 0.00 | 0.00 | 26 | 1003.3 |
| 20260508184604 | 61 | 224 | 0.0 | 4.0 | 0.00 | 0.00 | 0.00 | 28 | 1003.5 |
| 20260508183105 | 63 | 275 | 1.0 | 7.0 | 0.00 | 0.00 | 0.00 | 27 | 1003.8 |
| 20260508181557 | 65 | 163 | 3.0 | 12.0 | 0.00 | 0.00 | 0.00 | 26 | 1004.0 |
| 20260508180132 | 64 | 172 | 2.0 | 7.0 | 0.00 | 0.00 | 0.00 | 28 | 1003.9 |
| 20260508174612 | 64 | 306 | 2.0 | 6.0 | 0.00 | 0.00 | 0.00 | 28 | 1004.2 |
| 20260508173054 | 62 | 198 | 3.0 | 11.0 | 0.00 | 0.00 | 0.00 | 28 | 1004.7 |
| 20260508171557 | 61 | 163 | 2.0 | 9.0 | 0.00 | 0.00 | 0.00 | 30 | 1005.0 |
| 20260508170057 | 61 | 255 | 1.0 | 6.0 | 0.00 | 0.00 | 0.00 | 29 | 1005.1 |
| 20260508164600 | 59 | 210 | 2.0 | 4.0 | 0.00 | 0.00 | 0.00 | 32 | 1005.4 |
| 20260508163056 | 58 | 277 | 1.0 | 7.0 | 0.00 | 0.00 | 0.00 | 31 | 1005.5 |
| 20260508161559 | 58 | 192 | 1.0 | 7.0 | 0.00 | 0.00 | 0.00 | 32 | 1005.7 |
| 20260508160054 | 60 | 284 | 3.0 | 10.0 | 0.00 | 0.00 | 0.00 | 29 | 1005.9 |
| 20260508154558 | 59 | 154 | 3.0 | 9.0 | 0.00 | 0.00 | 0.00 | 33 | 1006.1 |
| 20260508153055 | 58 | 311 | 4.0 | 10.0 | 0.00 | 0.00 | 0.00 | 32 | 1006.0 |
| 20260508151552 | 58 | 169 | 3.0 | 7.0 | 0.00 | 0.00 | 0.00 | 34 | 1006.0 |
| 20260508150053 | 57 | 284 | 3.0 | 9.0 | 0.00 | 0.00 | 0.00 | 36 | 1006.3 |
| 20260508144556 | 55 | 284 | 2.0 | 7.0 | 0.00 | 0.00 | 0.00 | 39 | 1006.5 |
| 20260508143104 | 54 | 143 | 2.0 | 7.0 | 0.00 | 0.00 | 0.00 | 41 | 1006.7 |
| 20260508141557 | 54 | 144 | 3.0 | 9.0 | 0.00 | 0.00 | 0.00 | 40 | 1006.7 |
| 20260508140105 | 53 | 289 | 1.0 | 9.0 | 0.00 | 0.00 | 0.00 | 46 | 1006.8 |
| 20260508134605 | 51 | 139 | 2.0 | 6.0 | 0.00 | 0.00 | 0.00 | 48 | 1006.9 |
| 20260508133054 | 49 | 159 | 3.0 | 6.0 | 0.00 | 0.00 | 0.00 | 51 | 1007.1 |
| 20260508131555 | 47 | 206 | 3.0 | 8.0 | 0.00 | 0.00 | 0.00 | 54 | 1007.0 |
| 20260508130055 | 45 | 150 | 1.0 | 4.0 | 0.00 | 0.00 | 0.00 | 57 | 1007.1 |
| 20260508124555 | 43 | 184 | 1.0 | 4.0 | 0.00 | 0.00 | 0.00 | 61 | 1007.3 |
| 20260508123053 | 41 | 143 | 0.0 | 2.0 | 0.00 | 0.00 | 0.00 | 70 | 1007.0 |
| 20260508121554 | 39 | 148 | 0.0 | 1.0 | 0.00 | 0.00 | 0.00 | 73 | 1007.0 |
| 20260508120057 | 36 | 149 | 0.0 | 1.0 | 0.00 | 0.00 | 0.00 | 77 | 1007.0 |
| 20260508114607 | 35 | 136 | 0.0 | 2.0 | 0.00 | 0.00 | 0.00 | 79 | 1007.2 |
| 20260508113103 | 33 | 156 | 1.0 | 3.0 | 0.00 | 0.00 | 0.00 | 82 | 1006.9 |
| 20260508111610 | 31 | 159 | 0.0 | 1.0 | 0.00 | 0.00 | 0.00 | 85 | 1007.1 |
| 20260508110100 | 30 | 0 | 0.0 | 1.0 | 0.00 | 0.00 | 0.00 | 85 | 1007.0 |